This is the latest recevied weather packets stored in our database for station/object IU1OLT-7. If no packets are shown the sender has not sent any weather packets the latest 1 day(s).
| Time | Temp. | Humidity | Pressure | Rain* | Wind** | Luminosity | Snow |
|---|---|---|---|---|---|---|---|
| 1788621098 | 30° C | 43% | 1024.5 hPa | - | - | - | - |
| 1788620197 | 34.44° C | 33% | 1024.5 hPa | - | - | - | - |
| 1788619304 | 36.67° C | 30% | 1024.6 hPa | - | - | - | - |
| 1788618403 | 32.78° C | 37% | 1024.6 hPa | - | - | - | - |
| 1788617503 | 35.56° C | 31% | 1024.5 hPa | - | - | - | - |
| 1788616603 | 32.78° C | 34% | 1024.7 hPa | - | - | - | - |
| 1788615697 | 33.33° C | 32% | 1024.7 hPa | - | - | - | - |
| 1788614803 | 34.44° C | 31% | 1024.8 hPa | - | - | - | - |
| 1788613904 | 32.22° C | 34% | 1024.8 hPa | - | - | - | - |
| 1788613003 | 33.33° C | 34% | 1024.9 hPa | - | - | - | - |
| 1788612104 | 33.89° C | 28% | 1024.9 hPa | - | - | - | - |
| 1788610303 | 32.78° C | 30% | 1025 hPa | - | - | - | - |
| 1788608497 | 36.11° C | 26% | 1024.9 hPa | - | - | - | - |
| 1788607604 | 35° C | 26% | 1024.9 hPa | - | - | - | - |
| 1788606693 | 35° C | 26% | 1024.9 hPa | - | - | - | - |
| 1788605793 | 32.78° C | 27% | 1025 hPa | - | - | - | - |
| 1788604899 | 33.89° C | 27% | 1024.9 hPa | - | - | - | - |
| 1788603101 | 32.22° C | 28% | 1024.9 hPa | - | - | - | - |
| 1788602199 | 32.22° C | 26% | 1024.8 hPa | - | - | - | - |
| 1788601299 | 30.56° C | 25% | 1024.8 hPa | - | - | - | - |
| 1788600399 | 30.56° C | 22% | 1024.8 hPa | - | - | - | - |
| 1788599499 | 31.11° C | 23% | 1024.7 hPa | - | - | - | - |
| 1788598599 | 31.67° C | 24% | 1024.6 hPa | - | - | - | - |
| 1788596799 | 31.11° C | 25% | 1024.2 hPa | - | - | - | - |
| 1788595899 | 30° C | 23% | 1024.2 hPa | - | - | - | - |
* Rain since midnight (hover to see other rain measurements)
** Current wind speed in m/s (hover to see current wind gust speed)